Location: Wingville
(42.9917°N, 90.4915°W)
Time: 11:22:11
(UTC+00:00)

Cosmos 1743 Rocket - Visible Passes

Search period start: 30 November 2022 00:00
Search period end: 10 December 2022 00:00
Orbit: 603 x 632 km, 82.6° (Epoch: 29 November)

Date Brightness Start Highest point End Pass type
(mag) Time Alt. Az. Time Alt. Az. Time Alt. Az.
02 Dec 6.6 12:32:56 10° ESE 12:35:03 13° E 12:37:10 10° NE visible
03 Dec 5.5 00:15:34 10° N 00:16:33 16° NNE 00:16:33 16° NNE visible
04 Dec 3.4 00:32:17 10° N 00:36:45 75° E 00:41:12 10° SSE visible
04 Dec 6.8 02:13:43 10° W 02:13:53 10° W 02:14:04 10° W visible
04 Dec 5.2 23:13:09 10° NE 23:15:24 14° ENE 23:17:39 10° E visible
05 Dec 4.1 00:49:15 10° NNW 00:53:38 59° W 00:58:02 10° S visible
05 Dec 4.7 23:28:59 10° NNE 23:32:34 23° ENE 23:36:09 10° SE visible
06 Dec 5.3 01:06:28 10° NNW 01:10:26 32° W 01:14:24 10° SSW visible
06 Dec 6.6 12:02:45 10° ESE 12:04:54 14° E 12:07:05 10° NE visible
06 Dec 3.9 23:45:26 10° N 23:49:39 41° ENE 23:53:52 10° SSE visible
07 Dec 6.3 01:24:06 10° NW 01:27:09 18° W 01:30:12 10° SW visible
07 Dec 6.1 12:18:04 10° SE 12:21:34 24° E 12:25:06 10° NE visible
08 Dec 3.5 00:02:10 10° N 00:06:38 75° E 00:11:05 10° SSE visible
08 Dec 4.9 12:34:12 10° SSE 12:38:18 44° E 12:42:29 10° NNE visible
09 Dec 4.2 00:19:07 10° NNW 00:23:31 59° W 00:27:54 10° S visible
09 Dec 4.7 22:58:50 10° NNE 23:02:27 24° ENE 23:06:03 10° SE visible
